Back to catalog

DELTA 1 DEB

AliveLEO
NORAD 7039·DEBRIS·🇺🇸 United States

Launched Nov 6, 1973 from Vandenberg Space Force Base

Loading…

Next Passes (next 24 hours)

TLE

FreshSource: Space-Track

Epoch: Sep 14, 2026, 06:45 UTC

1 07039U 73086AF  26257.28132747  .00000010  00000-0  37565-3 0  9999
2 07039 102.5508 263.5190 0130049 130.7629 244.9706 12.49620756408245

Track DELTA 1 DEB in real time with AllMySat

Download on the App Store